Location: Courçay
(47.2523°N, 0.8761°E)
Time: 21:13:13
(UTC+00:00)

Cosmos 468 Rocket - Pass Details

Date: 18 November 2025
Orbit: 740 x 774 km, 74.0° (Epoch: 10 December)

Event Time Altitude Azimuth Distance (km) Brightness Sun altitude
Rises 17:40:33 0° 338° (NNW) 3,235 7.3 -13.9°
Reaches altitude 10° 17:42:57 10° 340° (NNW) 2,300 6.6 -14.3°
Maximum altitude 17:48:10 77° 67° (ENE) 779 3.9 -15.2°
Drops below altitude 10° 17:53:18 10° 153° (SSE) 2,261 6.3 -16.0°
Sets 17:55:38 0° 155° (SSE) 3,177 7.1 -16.4°
